Pottstown, PA

2:25 PM EDT on June 19, 2018 (GMT -0400)
Pottstown Limerick

Weather History for KPTW - August, 2017

Change the Weather History Date:

Sunday, August 13, 2017

  Actual Average (WUND) Record (WUND)
Temperature  
Mean Temperature 72 °F -  
Max Temperature 80 °F - - (-1)
Min Temperature 63 °F - - (-1)
Cooling Degree Days 6    
Growing Degree Days 22 (Base 50)    
Moisture  
Dew Point 64 °F    
Average Humidity 82    
Maximum Humidity 100    
Minimum Humidity 52    
Precipitation  
Precipitation 0.00 in - - ()
Sea Level Pressure  
Sea Level Pressure 29.97 in    
Wind  
Wind Speed 3 mph (North)    
Max Wind Speed 8 mph    
Max Gust Speed -    
Visibility 7 miles    
Events      
Averages and records for this station are not official NWS values.
T = Trace of Precipitation, MM = Missing Value Source: NWS Daily Summary

Daily Weather History Graph

Daily Weather History Graph

Search for Another Location

Airport or City:

Astronomy

Aug. 13, 2017 Rise Set
Actual Time 6:11 AM EDT 8:01 PM EDT
Civil Twilight 5:42 AM EDT 8:30 PM EDT
Nautical Twilight 5:06 AM EDT 9:06 PM EDT
Astronomical Twilight 4:28 AM EDT 9:44 PM EDT
Moon 11:33 PM EDT (8/13) 12:09 PM EDT (8/13)
Length of Visible Light 14h 48m
Length of Day
13h 49m
Waning Gibbous, 65% of the Moon is Illuminated
Aug 13
Waning Gibbous
Aug 14
Last Quarter
Aug 21
New
Aug 29
First Quarter
Sep 6
Full

Hourly Weather History & Observations

Time (EDT) Temp. Dew Point Humidity Pressure Visibility Wind Dir Wind Speed Gust Speed Precip Events Conditions
12:54 AM 70.0 °F 70.0 °F 100% 29.90 in 8.0 mi West 4.6 mph - N/A   Overcast
1:54 AM 69.1 °F 69.1 °F 100% 29.89 in 7.0 mi Calm Calm - N/A   Overcast
2:45 AM 68.0 °F 68.0 °F 100% 29.90 in 5.0 mi WSW 3.5 mph - N/A   Scattered Clouds
2:54 AM 68.0 °F 68.0 °F 100% 29.89 in 5.0 mi Calm Calm - N/A   Clear
3:54 AM 66.0 °F 66.0 °F 100% 29.89 in 4.0 mi Calm Calm - N/A   Partly Cloudy
4:54 AM 64.9 °F 64.9 °F 100% 29.90 in 4.0 mi Calm Calm - N/A   Clear
5:54 AM 64.0 °F 64.0 °F 100% 29.92 in 5.0 mi Calm Calm - N/A   Clear
6:35 AM 64.0 °F 64.0 °F 100% 29.94 in 2.5 mi Calm Calm - N/A   Clear
6:52 AM 64.4 °F 64.4 °F 100% 29.95 in 3.0 mi Calm Calm - N/A   Clear
6:54 AM 64.0 °F 64.0 °F 100% 29.94 in 3.0 mi Calm Calm - N/A   Clear
7:54 AM 66.9 °F 66.0 °F 97% 29.96 in 6.0 mi Calm Calm - N/A   Clear
8:54 AM 70.0 °F 64.9 °F 84% 29.97 in 8.0 mi Variable 3.5 mph - N/A   Clear
9:42 AM 73.0 °F 64.0 °F 73% 30.00 in 9.0 mi NNE 3.5 mph - N/A   Mostly Cloudy
9:54 AM 73.0 °F 64.0 °F 73% 29.98 in 9.0 mi North 8.1 mph - N/A   Mostly Cloudy
10:18 AM 73.9 °F 64.0 °F 71% 30.00 in 9.0 mi North 8.1 mph - N/A   Partly Cloudy
10:54 AM 75.0 °F 64.0 °F 69% 30.00 in 9.0 mi NNE 8.1 mph - N/A   Partly Cloudy
11:54 AM 75.0 °F 62.1 °F 64% 30.00 in 9.0 mi North 8.1 mph - N/A   Mostly Cloudy
12:54 PM 77.0 °F 63.0 °F 62% 30.00 in 9.0 mi North 8.1 mph - N/A   Mostly Cloudy
1:54 PM 75.9 °F 62.1 °F 62% 30.01 in 9.0 mi North 6.9 mph - N/A   Overcast
2:54 PM 79.0 °F 63.0 °F 58% 30.00 in 9.0 mi NNE 5.8 mph - N/A   Partly Cloudy
3:54 PM 77.0 °F 61.0 °F 58% 30.00 in 9.0 mi North 3.5 mph - N/A   Overcast
4:54 PM 78.1 °F 61.0 °F 56% 30.01 in 10.0 mi North 4.6 mph - N/A   Mostly Cloudy
5:54 PM 79.0 °F 60.1 °F 52% 30.00 in 10.0 mi NW 3.5 mph - N/A   Clear
6:54 PM 75.9 °F 61.0 °F 60% 30.01 in 10.0 mi NW 3.5 mph - N/A   Clear
7:54 PM 72.0 °F 62.1 °F 71% 30.02 in 9.0 mi Calm Calm - N/A   Clear
8:54 PM 68.0 °F 64.0 °F 87% 30.03 in 9.0 mi Calm Calm - N/A   Clear
9:54 PM 64.9 °F 64.0 °F 97% 30.04 in 8.0 mi Calm Calm - N/A   Clear
10:54 PM 64.9 °F 64.0 °F 97% 30.05 in 8.0 mi Calm Calm - N/A   Clear
11:54 PM 63.0 °F 63.0 °F 100% 30.05 in 8.0 mi Calm Calm - N/A   Clear